Previsão horária em Ploszewo

Hoje, 2 Março, Terça-feira

Tempo Temperatura Precipitação Vento Pressão Humidade
00:00 +1°C° 0 mm 3 m/s 766 mmHg 93%
01:00 0°C° 0 mm 3 m/s 767 mmHg 93%
02:00 0°C° 0 mm 3 m/s 766 mmHg 93%
03:00 0°C° 0 mm 3 m/s 766 mmHg 93%
04:00 0°C° 0 mm 3 m/s 765 mmHg 93%
05:00 0°C° 0 mm 3 m/s 765 mmHg 93%
06:00 0°C° 0 mm 3 m/s 766 mmHg 94%
07:00 0°C° 0 mm 3 m/s 766 mmHg 94%
08:00 0°C° 0 mm 4 m/s 766 mmHg 88%
09:00 +3°C° 0 mm 4 m/s 766 mmHg 83%
10:00 +5°C° 0 mm 4 m/s 766 mmHg 77%
11:00 +6°C° 0 mm 4 m/s 766 mmHg 72%
12:00 +7°C° 0 mm 4 m/s 766 mmHg 67%
13:00 +8°C° 0 mm 4 m/s 766 mmHg 62%
14:00 +8°C° 0 mm 4 m/s 765 mmHg 63%
15:00 +8°C° 0 mm 4 m/s 765 mmHg 63%
16:00 +9°C° 0 mm 3 m/s 764 mmHg 64%
17:00 +8°C° 0 mm 3 m/s 765 mmHg 69%
18:00 +7°C° 0 mm 3 m/s 765 mmHg 74%
19:00 +5°C° 0 mm 2 m/s 765 mmHg 79%
20:00 +5°C° 0 mm 2 m/s 765 mmHg 81%
21:00 +4°C° 0 mm 2 m/s 765 mmHg 83%
22:00 +5°C° 0 mm 1 m/s 765 mmHg 84%
23:00 +4°C° 0 mm 1 m/s 765 mmHg 85%

Amanhã, 3 Março, Quarta-feira

Tempo Temperatura Precipitação Vento Pressão Humidade
00:00 +3°C° 0 mm 0 m/s 765 mmHg 85%
01:00 +2°C° 0 mm 0 m/s 766 mmHg 85%
02:00 +2°C° 0 mm 0 m/s 765 mmHg 85%
03:00 +2°C° 0 mm 0 m/s 764 mmHg 85%
04:00 +3°C° 0 mm 1 m/s 764 mmHg 85%
05:00 +3°C° 0 mm 1 m/s 764 mmHg 86%
06:00 +3°C° 0 mm 1 m/s 764 mmHg 86%
07:00 +3°C° 0 mm 1 m/s 764 mmHg 86%
08:00 +4°C° 0 mm 1 m/s 763 mmHg 80%
09:00 +5°C° 0 mm 2 m/s 763 mmHg 73%
10:00 +7°C° 0 mm 2 m/s 763 mmHg 66%
11:00 +8°C° 0 mm 2 m/s 762 mmHg 62%
12:00 +9°C° 0 mm 2 m/s 762 mmHg 57%
13:00 +10°C° 0 mm 2 m/s 761 mmHg 53%
14:00 +10°C° 0 mm 2 m/s 760 mmHg 55%
15:00 +10°C° 0 mm 2 m/s 759 mmHg 58%
16:00 +10°C° 0 mm 2 m/s 759 mmHg 60%
17:00 +9°C° 0 mm 2 m/s 758 mmHg 66%
18:00 +8°C° 0 mm 3 m/s 758 mmHg 71%
19:00 +7°C° 0 mm 3 m/s 758 mmHg 76%
20:00 +5°C° 0 mm 3 m/s 757 mmHg 77%
21:00 +5°C° 0 mm 4 m/s 756 mmHg 79%
22:00 +4°C° 0 mm 4 m/s 756 mmHg 81%
23:00 +4°C° 0 mm 4 m/s 755 mmHg 84%

Depois de amanhã, 4 Março, Quinta-feira

Tempo Temperatura Precipitação Vento Pressão Humidade
00:00 +4°C° 0 mm 4 m/s 755 mmHg 87%
01:00 +3°C° 0 mm 4 m/s 755 mmHg 90%
02:00 +3°C° 0 mm 4 m/s 754 mmHg 91%
03:00 +3°C° 0 mm 4 m/s 753 mmHg 92%
04:00 +3°C° 0 mm 4 m/s 753 mmHg 93%
05:00 +3°C° 0 mm 4 m/s 753 mmHg 93%
06:00 +1°C° 0 mm 4 m/s 752 mmHg 94%
07:00 +1°C° 0 mm 4 m/s 752 mmHg 95%
08:00 +2°C° 0 mm 5 m/s 752 mmHg 90%
09:00 +3°C° 0 mm 5 m/s 751 mmHg 85%
10:00 +4°C° 0 mm 6 m/s 751 mmHg 80%
11:00 +5°C° 0 mm 6 m/s 751 mmHg 75%
12:00 +6°C° 0 mm 5 m/s 751 mmHg 69%
13:00 +7°C° 0 mm 5 m/s 751 mmHg 64%
14:00 +7°C° 0 mm 5 m/s 750 mmHg 65%
15:00 +6°C° 0 mm 5 m/s 750 mmHg 66%
16:00 +6°C° 0 mm 5 m/s 749 mmHg 67%
17:00 +5°C° 0 mm 4 m/s 749 mmHg 72%
18:00 +3°C° 0 mm 4 m/s 749 mmHg 76%
19:00 +1°C° 0 mm 4 m/s 749 mmHg 80%
20:00 +1°C° 0 mm 4 m/s 749 mmHg 83%
21:00 +1°C° 0 mm 4 m/s 750 mmHg 86%
22:00 0°C° 0 mm 4 m/s 750 mmHg 88%
23:00 -1°C° 0.1 mm 4 m/s 750 mmHg 89%

5 Março, Sexta-feira

Tempo Temperatura Precipitação Vento Pressão Humidade
00:00 -1°C° 0.1 mm 5 m/s 750 mmHg 89%
01:00 -2°C° 0.1 mm 5 m/s 750 mmHg 89%
02:00 -2°C° 0 mm 5 m/s 751 mmHg 86%
03:00 -2°C° 0 mm 5 m/s 751 mmHg 83%
04:00 -4°C° 0 mm 5 m/s 751 mmHg 80%
05:00 -4°C° 0 mm 5 m/s 752 mmHg 79%
06:00 -4°C° 0 mm 5 m/s 752 mmHg 78%
07:00 -4°C° 0 mm 5 m/s 753 mmHg 78%
08:00 -2°C° 0 mm 5 m/s 753 mmHg 69%
09:00 -1°C° 0 mm 5 m/s 754 mmHg 60%
10:00 0°C° 0 mm 5 m/s 754 mmHg 52%
11:00 0°C° 0 mm 4 m/s 755 mmHg 48%
12:00 +1°C° 0 mm 4 m/s 755 mmHg 45%
13:00 +1°C° 0 mm 4 m/s 755 mmHg 42%
14:00 +1°C° 0.1 mm 4 m/s 755 mmHg 44%
15:00 +1°C° 0.1 mm 4 m/s 756 mmHg 45%
16:00 +1°C° 0.1 mm 4 m/s 756 mmHg 47%
17:00 0°C° 0.1 mm 4 m/s 756 mmHg 53%
18:00 -1°C° 0.1 mm 4 m/s 757 mmHg 58%
19:00 -2°C° 0.1 mm 4 m/s 758 mmHg 63%
20:00 -2°C° 0 mm 4 m/s 758 mmHg 67%
21:00 -3°C° 0 mm 4 m/s 759 mmHg 71%
22:00 -3°C° 0 mm 4 m/s 759 mmHg 74%
23:00 -4°C° 0 mm 4 m/s 760 mmHg 74%

6 Março, Sábado

Tempo Temperatura Precipitação Vento Pressão Humidade
00:00 -4°C° 0 mm 4 m/s 760 mmHg 75%
01:00 -4°C° 0 mm 4 m/s 760 mmHg 75%
02:00 -4°C° 0 mm 4 m/s 761 mmHg 73%
03:00 -4°C° 0 mm 4 m/s 761 mmHg 71%
04:00 -4°C° 0 mm 4 m/s 762 mmHg 68%
05:00 -4°C° 0 mm 4 m/s 762 mmHg 70%
06:00 -4°C° 0 mm 3 m/s 762 mmHg 71%
07:00 -4°C° 0 mm 3 m/s 763 mmHg 72%
08:00 -2°C° 0 mm 3 m/s 763 mmHg 63%
09:00 -1°C° 0 mm 3 m/s 763 mmHg 54%
10:00 -1°C° 0 mm 4 m/s 764 mmHg 45%
11:00 0°C° 0 mm 4 m/s 764 mmHg 44%
12:00 0°C° 0 mm 4 m/s 764 mmHg 43%
13:00 +1°C° 0 mm 5 m/s 764 mmHg 42%
14:00 +1°C° 0 mm 5 m/s 763 mmHg 42%
15:00 +1°C° 0 mm 5 m/s 763 mmHg 42%
16:00 +1°C° 0 mm 5 m/s 763 mmHg 43%
17:00 0°C° 0 mm 4 m/s 763 mmHg 48%
18:00 -1°C° 0 mm 4 m/s 763 mmHg 53%
19:00 -2°C° 0 mm 4 m/s 763 mmHg 58%
20:00 -2°C° 0 mm 4 m/s 763 mmHg 58%
21:00 -2°C° 0 mm 5 m/s 763 mmHg 57%
22:00 -2°C° 0 mm 5 m/s 763 mmHg 57%
23:00 -2°C° 0 mm 5 m/s 762 mmHg 62%

7 Março, Domingo

Tempo Temperatura Precipitação Vento Pressão Humidade
00:00 -3°C° 0 mm 6 m/s 762 mmHg 67%
01:00 -3°C° 0 mm 6 m/s 762 mmHg 71%
02:00 -3°C° 0 mm 6 m/s 761 mmHg 76%
03:00 -3°C° 0 mm 6 m/s 761 mmHg 81%
04:00 -3°C° 0 mm 6 m/s 761 mmHg 85%
05:00 -2°C° 0 mm 6 m/s 760 mmHg 83%
06:00 -2°C° 0 mm 7 m/s 760 mmHg 81%
07:00 -2°C° 0 mm 7 m/s 760 mmHg 78%
08:00 -2°C° 0 mm 7 m/s 760 mmHg 78%
09:00 -2°C° 0 mm 7 m/s 760 mmHg 77%
10:00 -2°C° 0 mm 8 m/s 759 mmHg 77%
11:00 -2°C° 0 mm 8 m/s 759 mmHg 73%
12:00 -1°C° 0 mm 8 m/s 759 mmHg 69%
13:00 -1°C° 0 mm 8 m/s 758 mmHg 66%
14:00 -1°C° 0 mm 8 m/s 758 mmHg 67%
15:00 -1°C° 0 mm 7 m/s 757 mmHg 68%
16:00 -1°C° 0 mm 7 m/s 756 mmHg 68%
17:00 -1°C° 0 mm 6 m/s 756 mmHg 72%
18:00 -1°C° 0 mm 6 m/s 755 mmHg 76%
19:00 -1°C° 0 mm 5 m/s 755 mmHg 79%
20:00 -2°C° 0 mm 6 m/s 755 mmHg 83%
21:00 -2°C° 0 mm 6 m/s 754 mmHg 87%
22:00 -1°C° 0 mm 7 m/s 754 mmHg 91%
23:00 -1°C° 0.1 mm 7 m/s 753 mmHg 92%
Mostrar mais

Necessitamos do seu Consentimento

A Meteoprog e os seus Fornecedores de Serviços podem armazenar e aceder a dados pessoais como cookies, identificadores do dispositivo ou outras tecnologias semelhantes existentes no seu dispositivo e processar estes dados para personalizar conteúdos e anúncios, assim como funcionalidades nas redes sociais e análise de tráfego.

  • Armazenar e/ou aceder a informações no seu dispositivo

    Os cookies, identificadores do dispositivo ou outras informações podem ser armazenados ou acedidos no seu dispositivo, para os fins acima indicados.

  • Anúncios e conteúdos personalizados, medição de anúncios e conteúdos, dados sobre o público-alvo e desenvolvimento de produtos

    Os anúncios e os conteúdos podem ser personalizados com base num perfil. Podem ser adicionados dados adicionais para uma maior personalização dos anúncios e dos conteúdos. A eficácia dos anúncios e dos conteúdos pode ser medida. Podem ser obtidas informações sobre o público que visualizou os anúncios e os conteúdos. Estes dados podem ser usados para desenvolver ou melhorar sistemas, softwares ou a experiência do utilizador.

Ao clicar em "Eu concordo”, permitirá o uso de cookies, identificadores do dispositivo e web beacons mencionados ou outras tecnologias semelhantes. As configurações do navegador do seu dispositivo podem ser alteradas.

Para certos fins, podem ser invocados interesses legítimos ao invés de consentimento. Pode ler mais informação sobre este assunto na nossa Política de Privacidade e Cookies.